Location: Hermaringen
(48.5952°N, 10.2585°E)
Time: 23:21:50
(UTC+00:00)

SPOT 1/Viking Rocket - Pass Details

Date: 18 November 2025
Orbit: 773 x 788 km, 98.2° (Epoch: 05 December)

Event Time Altitude Azimuth Distance (km) Brightness Sun altitude
Rises 16:39:11 0° 140° (SE) 3,260 6.5 -10.4°
Reaches altitude 10° 16:41:37 10° 133° (SE) 2,338 5.7 -10.8°
Maximum altitude 16:46:22 39° 66° (ENE) 1,178 4.0 -11.6°
Drops below altitude 10° 16:51:09 10° 359° (N) 2,360 5.9 -12.3°
Sets 16:53:37 0° 352° (N) 3,295 6.7 -12.7°
